Regional Weather Roundup
Issued by NWS

Home | Current Version | Previous Version | Text Only | Print | Product List | Glossary Off
Versions: 1 2 3 4 5 6 7 8 9 10 11 12 13 14 15 16 17 18 19 20 21 22 23 24 25 26 27 28 29 30 31 32 33 34 35 36 37 38 39 40 41 42 43 44 45 46 47 48 49 50

000
ASUS43 KMKX 241711
RWRWI

WISCONSIN REGIONAL WEATHER ROUNDUP
NATIONAL WEATHER SERVICE MILWAUKEE/SULLIVAN WI
1200 PM CDT SAT JUN 24 2017

NOTE: "FAIR" INDICATES FEW OR NO CLOUDS BELOW 12,000 FEET WITH NO
SIGNIFICANT WEATHER AND/OR OBSTRUCTIONS TO VISIBILITY.

WIZ001-002-006>008-014>016-023>028-241800-
NORTHWEST WISCONSIN

CITY           SKY/WX    TMP DP  RH WIND       PRES   REMARKS
SUPERIOR ARPT  NOT AVBL
ASHLAND        LGT RAIN  57  50  77 W10       29.93R
HAYWARD        CLOUDY    59  43  55 VRB5      29.95R
SIREN          PTSUNNY   61  42  51 W14G21    29.97R
CUMBERLAND     PTSUNNY   61  43  51 W17       29.98R
RICE LAKE      MOSUNNY   61  44  54 W12G20    29.99S
CHETEK         MOSUNNY   62  47  59 W9        29.98R
LADYSMITH      PTSUNNY   63  47  57 W16       29.97R
EAU CLAIRE     PTSUNNY   64  41  42 W16G25    29.98R
MENOMONIE      MOSUNNY   62  42  47 W14G22    30.00S
NEW RICHMOND   PTSUNNY   62  39  42 NW13G25   30.01R
OSCEOLA        PTSUNNY   62  40  44 W10G20    30.03R
$$

WIZ003>005-009-010-017-018-241800-
NORTH CENTRAL WISCONSIN

CITY           SKY/WX    TMP DP  RH WIND       PRES   REMARKS
MANITOWISH WTR CLOUDY    55  52  92 W12       29.92R
ARBOR VITAE    PTSUNNY   57  50  77 NW9       29.91R
WOODRUFF       PTSUNNY   57  50  77 NW9       29.91R
RHINELANDER    CLOUDY    57  50  77 W9        29.92R
EAGLE RIVER    CLOUDY    56  49  75 W9        29.90S
LAND O LAKES   RAIN      55  51  89 W6        29.92R
PHILLIPS       CLOUDY    58  49  69 W7        29.93R
TOMAHAWK       NOT AVBL
MEDFORD        CLOUDY    59  43  54 W14G22    29.94S
MERRILL        CLOUDY    61  49  66 NW12G17   29.93S
$$

WIZ029-030-035-036-043>047-241800-
CENTRAL WISCONSIN

CITY           SKY/WX    TMP DP  RH WIND       PRES   REMARKS
WAUSAU         CLOUDY    60  45  57 W14       29.92R
MOSINEE        CLOUDY    61  48  63 W12G22    29.94S
MARSHFIELD     CLOUDY    62  43  49 W17G23    29.96R
STEVENS POINT  CLOUDY    60  43  52 W8        29.96R
WAUPACA        CLOUDY    65  47  51 W12G18    29.94R
WAUTOMA        PTSUNNY   64  43  46 W20G26    29.97R
WISC RAPIDS    PTSUNNY   66  43  43 NW16G22   29.98R
CAMP DOUGLAS   PTSUNNY   61  48  63 W10       29.99R
$$

WIZ011>013-019>022-031-037>040-048>050-241800-
NORTHEAST WISCONSIN

CITY           SKY/WX    TMP DP  RH WIND       PRES   REMARKS
ANTIGO         CLOUDY    58  51  77 W12G20    29.93R
SHAWANO        CLOUDY    63  52  67 W12G18    29.91R
OCONTO         CLOUDY    66  56  70 W15       29.87R
STURGEON BAY   LGT RAIN  62  58  86 W6          N/A
GREEN BAY      PTSUNNY   69  56  62 W17G25    29.89R
MANITOWOC      PTSUNNY   68  51  54 W12       29.90R
APPLETON       PTSUNNY   64  48  55 W13G20    29.92R
CLINTONVILLE   CLOUDY    63  48  59 W15       29.92R
OSHKOSH        MOSUNNY   67  46  47 W14G20    29.93R
$$

WIZ032>034-041-042-053>061-241800-
SOUTHWEST WISCONSIN

CITY           SKY/WX    TMP DP  RH WIND       PRES   REMARKS
LA CROSSE      PTSUNNY   69  45  41 NW14      30.01R
SPARTA         PTSUNNY   63  46  54 NW12G18   30.02R
VIROQUA        PTSUNNY   63  46  54 W16       30.03R
BOSCOBEL       PTSUNNY   66  46  48 W10G21    30.03R
PRAIRIE DU CHI SUNNY     67  40  37 W17G24    30.04R
PLATTEVILLE    MOSUNNY   68  47  48 W16G25    30.04R
$$

WIZ056-057-062-063-064-067-068-241800-
SOUTH CENTRAL WISCONSIN

CITY           SKY/WX    TMP DP  RH WIND       PRES   REMARKS
REEDSBURG      CLOUDY    63  49  60 NW9G18    29.99R
BARABOO/DELLS  CLOUDY    64  46  51 W10       29.99R
LONE ROCK      PTSUNNY   67  50  54 W16       30.00R
MINERAL POINT  MOSUNNY   66  46  48 W9G22     30.02R
MADISON        PTSUNNY   65  46  50 NW13G18   29.98R
MIDDLETON      PTSUNNY   68  49  51 W12G17    30.00R
WATERTOWN      PTSUNNY   66  46  48 W14G23    29.98R
MONROE         MOSUNNY   68  43  40 W18       30.01R
JANESVILLE     PTSUNNY   70  45  40 W18       29.99R
$$

WIZ051-052-058>065-066-070>072-241800-
SOUTHEAST WISCONSIN

CITY           SKY/WX    TMP DP  RH WIND       PRES   REMARKS
MILWAUKEE      MOSUNNY   71  48  43 W17G24    29.95R
WAUKESHA       PTSUNNY   64  48  55 W14G21    29.98R
MILWAUKEE/TIMM MOSUNNY   68  45  42 NW12G21   29.96R
RACINE         MOSUNNY   71  48  43 W12G18    29.97R
KENOSHA        PTSUNNY   68  50  52 W12G23    29.97R
FOND DU LAC    PTSUNNY   67  43  41 W16G29    29.95R
SHEBOYGAN      MOSUNNY   68  52  56 W22G28    29.92R
WEST BEND      PTSUNNY   64  45  48 W14G23    29.95R
JUNEAU         PTSUNNY   64  45  49 W12G20    29.98R
$$

LSZ147-162-241800-
LAKE SUPERIOR

STATION/POSITION TIME  TEMP    WIND        PRES    WAVE
                       AIR SEA DIR/SP/G            HT/PER
                 (UTC) (F)     (DEG/KT/KT) (MB)    (FT/S)
W MID LAKE BUOY  1650   44 39  260/  6/  8 1011.8R   1/ 3
DEVILS ISLAND    1600   53     250/ 14/ 18 1012.0R
SAXON HARBOR     1630   58     260/  6/ 11 1012.5R
$$

LMZ867-665-643>646-241800-
LAKE MICHIGAN

STATION/POSITION TIME  TEMP    WIND        PRES    WAVE
                       AIR SEA DIR/SP/G            HT/PER
                 (UTC) (F)     (DEG/KT/KT) (MB)    (FT/S)
CHAMBERS ISLAND  1640   68     340/  4/  5 1010.8R
S GREEN BAY BUOY 1630   63     250/ 12/ 16 1011.2R
N MID LAKE BUOY  1650   59 58  250/  4/  4 1011.6R   1
NORTHPORT PIER   1640   64     320/  6/  9 1010.8R
KEWAUNEE LAKESHO 1648   64     280/  9/ 14 1011.6R
SHEBOYGAN LAKESH 1700   66     280/ 19/ 22 1012.7R
PORT WASHINGTON  1640   70     300/ 14/ 21 1014.2R
ATWATER BUOY     1509   63 59  280/ 12/ 14 1013.3R
MILWAUKEE LAKESH 1650   67     290/ 13/ 16   N/A
S MID LAKE BUOY  1650   62 62  280/  6/  8 1014.4R   2/ 4
KENOSHA   LAKESH 1700   68     290/ 16/ 20 1014.2
$$

TC  - TEMPERATURE IN CELSIUS
VSB - VISIBILITY IN STATUTE MILES
WCI - WIND CHILL INDEX
HX  - HEAT INDEX





USA.gov is the U.S. government's official web portal to all federal, state and local government web resources and services.